Date,TemperatureHighF,TemperatureAvgF,TemperatureLowF,DewpointHighF,DewpointAvgF,DewpointLowF,HumidityHigh,HumidityAvg,HumidityLow,PressureMaxIn,PressureMinIn,WindSpeedMaxMPH,WindSpeedAvgMPH,GustSpeedMaxMPH,PrecipitationSumIn
2013-2-1,68,62,57,57,54,51,91,75,56,30.32,30.19,15,4,15,0.00
2013-2-2,71,64,61,62,60,57,94,85,69,30.22,30.13,14,5,14,0.00
2013-2-3,66,62,58,61,60,57,97,91,81,30.27,30.01,14,6,14,0.01
2013-2-4,73,66,63,66,63,60,95,89,78,30.01,29.78,17,7,17,0.00
2013-2-5,72,66,62,68,65,61,98,94,85,29.94,29.83,15,5,15,0.00
2013-2-6,70,66,63,69,65,62,99,97,92,29.97,29.79,23,10,23,1.06
2013-2-7,70,66,64,68,64,62,97,95,90,29.97,29.85,12,5,12,0.00
2013-2-8,67,63,58,65,57,52,98,84,60,30.16,29.97,20,10,20,0.01
2013-2-9,69,66,63,67,64,60,97,93,89,30.05,29.78,21,11,21,0.00
2013-2-10,78,68,64,71,64,56,97,88,75,29.89,29.72,20,10,20,0.00
2013-2-11,65,62,59,60,59,56,98,90,80,29.95,29.85,23,15,23,0.00
2013-2-12,66,62,59,61,60,58,98,92,79,29.96,29.79,18,8,18,0.00
2013-2-13,63,57,52,60,48,42,92,74,59,30.15,29.95,20,9,20,0.00
2013-2-14,62,58,52,52,48,45,83,69,56,30.13,30.02,12,6,12,0.00
2013-2-15,65,62,57,56,53,45,83,74,53,30.28,30.03,21,9,21,0.00
2013-2-16,59,54,49,47,39,30,72,56,35,30.45,30.25,20,8,20,0.00
2013-2-17,68,62,51,59,53,45,83,72,62,30.25,29.98,17,8,17,0.00
2013-2-18,71,66,64,65,62,59,94,87,80,29.99,29.83,18,10,18,0.00
2013-2-19,65,63,61,64,56,49,96,78,64,30.18,29.97,26,15,26,0.00
2013-2-20,70,66,64,66,64,58,96,91,83,30.00,29.66,20,12,20,0.00
2013-2-21,78,70,66,70,65,55,96,85,61,29.78,29.58,17,9,17,0.00
2013-2-22,67,65,61,61,55,50,85,70,54,29.90,29.77,26,14,26,0.00
2013-2-23,66,59,54,57,51,46,88,76,61,29.99,29.85,17,9,17,0.00
2013-2-24,67,63,58,66,61,55,98,92,84,29.89,29.58,15,6,15,0.00
2013-2-25,70,65,57,67,46,25,99,57,19,29.86,29.50,45,20,45,0.01
2013-2-26,64,57,47,54,40,31,80,54,33,29.99,29.84,24,9,24,0.00
2013-2-27,72,63,55,58,50,39,92,67,31,30.16,29.85,17,6,17,0.00
2013-2-28,58,55,50,44,36,29,68,50,35,30.28,30.15,20,9,20,0.00